Terminal Aerodrome Forecast
Issued by NWS

Home | Current Version | Previous Version | Graphics & Text | Print | Product List | Glossary On
Versions: 1 2 3 4 5 6 7 8 9 10 11 12 13 14 15 16 17 18 19 20 21 22 23 24 25 26 27 28 29 30 31 32 33 34 35 36 37
000
FTUS45 KGGW 251400 AAA
TAFGDV
TAF AMD
KGDV 251403Z 2514/2612 23006KT 1SM -SN OVC015
     FM251530 27007KT P6SM VCSH OVC020
     FM251800 29016KT P6SM VCSH BKN015
     FM260300 34011KT P6SM BKN025
      AMD LTD TO CLD VIS AND WIND=

USA.gov is the U.S. government's official web portal to all federal, state and local government web resources and services.